This is the latest recevied weather packets stored in our database for station/object K3SV. If no packets are shown the sender has not sent any weather packets the latest 10 day(s).
| Time | Temp. | Humidity | Pressure | Rain* | Wind** | Luminosity | Snow |
|---|---|---|---|---|---|---|---|
| 1777489172 | 32.22° C | 45% | 1014.6 hPa | 0 mm | - | 701 W/m² | - |
| 1777488870 | 32.22° C | 46% | 1014.8 hPa | 0 mm | - | 245 W/m² | - |
| 1777488566 | 31.11° C | 48% | 1014.7 hPa | 0 mm | - | 749 W/m² | - |
| 1777488265 | 32.22° C | 46% | 1014.9 hPa | 0 mm | - | 746 W/m² | - |
| 1777487962 | 32.78° C | 47% | 1014.8 hPa | 0 mm | - | 765 W/m² | - |
| 1777487660 | 31.11° C | 49% | 1015.2 hPa | 0 mm | - | 785 W/m² | - |
| 1777487356 | 30.56° C | 49% | 1015 hPa | 0 mm | - | 785 W/m² | - |
| 1777487055 | 30.56° C | 49% | 1015 hPa | 0 mm | - | 809 W/m² | - |
| 1777486750 | 30.56° C | 51% | 1015.1 hPa | 0 mm | - | 789 W/m² | - |
| 1777486448 | 30° C | 52% | 1015.2 hPa | 0 mm | - | 215 W/m² | - |
| 1777486145 | 30° C | 52% | 1015.1 hPa | 0 mm | - | 214 W/m² | - |
| 1777485842 | 30° C | 51% | 1015.4 hPa | 0 mm | - | 180 W/m² | - |
| 1777485538 | 30° C | 52% | 1015.6 hPa | 0 mm | - | 809 W/m² | - |
| 1777485234 | 30° C | 51% | 1015.4 hPa | 0 mm | - | 201 W/m² | - |
| 1777484930 | 31.11° C | 50% | 1015.7 hPa | 0 mm | - | 799 W/m² | - |
| 1777484628 | 31.11° C | 48% | 1015.7 hPa | 0 mm | - | 796 W/m² | - |
| 1777484324 | 31.11° C | 49% | 1015.8 hPa | 0 mm | - | 771 W/m² | - |
| 1777484020 | 30.56° C | 49% | 1015.9 hPa | 0 mm | - | 734 W/m² | - |
| 1777483717 | 31.11° C | 49% | 1015.7 hPa | 0 mm | - | 777 W/m² | - |
| 1777483412 | 31.67° C | 49% | 1015.7 hPa | 0 mm | - | 776 W/m² | - |
| 1777483108 | 30.56° C | 50% | 1016 hPa | 0 mm | - | 754 W/m² | - |
| 1777482805 | 30° C | 52% | 1016 hPa | 0 mm | - | 751 W/m² | - |
| 1777482501 | 28.89° C | 54% | 1016.1 hPa | 0 mm | - | 757 W/m² | - |
| 1777482199 | 29.44° C | 54% | 1016.2 hPa | 0 mm | - | 226 W/m² | - |
| 1777481896 | 30° C | 52% | 1016.2 hPa | 0 mm | - | 684 W/m² | - |
* Rain latest hour (hover to see other rain measurements)
** Current wind speed in m/s (hover to see current wind gust speed)